Stumpy Point, NC

6:28 AM EDT on July 30, 2016 (GMT -0400)
Dare County Gunnery Range

Weather History for K2DP - June, 2014

Change the Weather History Date:

Sunday, June 8, 2014

  Actual Average (KMQI) Record (KMQI)
Temperature  
Mean Temperature 64 °F -  
Max Temperature 79 °F 77 °F 96 °F (2008)
Min Temperature 50 °F 65 °F 55 °F (1970)
Degree Days  
Heating Degree Days 1    
Growing Degree Days 14 (Base 50)    
Moisture  
Dew Point 55 °F    
Average Humidity 85    
Maximum Humidity 100    
Minimum Humidity 49    
Precipitation  
Precipitation 0.00 in - - ()
Sea Level Pressure  
Sea Level Pressure 29.99 in    
Wind  
Wind Speed 3 mph (West)    
Max Wind Speed 13 mph    
Max Gust Speed 17 mph    
Visibility 6 miles    
Events Fog    
Averages and records for this station are not official NWS values.
T = Trace of Precipitation, MM = Missing Value Source: NWS Daily Summary

Daily Weather History Graph

Daily Weather History Graph

Search for Another Location

Airport or City:

Trip Planner

Search our weather history database for the weather conditions in past years. The results will help you decide how hot, cold, wet, or windy it might be!

Date:

Astronomy

Jun. 08, 2014 Rise Set
Actual Time 5:47 AM EDT 8:18 PM EDT
Civil Twilight 5:17 AM EDT 8:47 PM EDT
Nautical Twilight 4:40 AM EDT 9:24 PM EDT
Astronomical Twilight 4:00 AM EDT 10:05 PM EDT
Moon 3:42 PM EDT (6/8) 2:29 AM EDT (6/8)
Length of Visible Light 15h 30m
Length of Day
14h 30m
Waxing Gibbous, 77% of the Moon is Illuminated
Jun 8
Waxing Gibbous
Jun 13
Full
Jun 19
Last Quarter
Jun 27
New
Jul 5
First Quarter

Hourly Weather History & Observations

Time (EDT) Temp. Dew Point Humidity Pressure Visibility Wind Dir Wind Speed Gust Speed Precip Events Conditions
12:07 AM 55.4 °F 53.6 °F 94% 30.00 in 2.8 mi SW 1.2 mph - N/A   Clear
12:13 AM 55.4 °F 53.6 °F 94% 30.00 in 4.0 mi South 2.3 mph - N/A   Clear
12:19 AM 55.4 °F 55.4 °F 100% 30.00 in 5.0 mi South 1.2 mph - N/A   Clear
12:49 AM 53.6 °F 51.8 °F 94% 30.00 in 2.2 mi SSW 2.3 mph - N/A   Clear
12:56 AM 53.6 °F 52.7 °F 97% 30.00 in 2.0 mi WSW 2.3 mph - N/A   Clear
1:01 AM 53.6 °F 53.6 °F 100% 30.00 in 1.6 mi Calm Calm - N/A   Clear
1:13 AM 53.6 °F 51.8 °F 94% 29.99 in 2.5 mi NW 1.2 mph - N/A   Clear
1:19 AM 53.6 °F 51.8 °F 94% 29.99 in 1.8 mi NW 1.2 mph - N/A   Clear
1:54 AM 53.6 °F 51.8 °F 94% 30.01 in 4.0 mi WNW 2.3 mph - N/A Fog Patches of Fog
1:57 AM 52.9 °F 52.2 °F 97% 30.01 in 3.0 mi WNW 2.3 mph - N/A Fog Patches of Fog
2:02 AM 51.8 °F 51.8 °F 100% 30.00 in 1.9 mi WNW 2.3 mph - N/A Fog Patches of Fog
2:08 AM 53.6 °F 51.8 °F 94% 30.00 in 5.0 mi WNW 1.2 mph - N/A Fog Patches of Fog
2:44 AM 51.8 °F 50.0 °F 94% 30.00 in 3.0 mi NW 3.5 mph - N/A   Clear
2:50 AM 51.8 °F 50.0 °F 94% 30.00 in 6.0 mi WNW 5.8 mph - N/A   Clear
2:56 AM 50.2 °F 48.7 °F 95% 30.00 in 2.8 mi WNW 5.8 mph - N/A   Clear
3:01 AM 50.0 °F 50.0 °F 100% 30.00 in 4.0 mi WNW 3.5 mph - N/A   Clear
3:07 AM 51.8 °F 51.8 °F 100% 30.00 in 12.0 mi WNW 3.5 mph - N/A   Clear
3:40 AM 53.6 °F 51.8 °F 94% 29.98 in 1.6 mi WNW 4.6 mph - N/A   Clear
3:46 AM 51.8 °F 50.0 °F 94% 29.98 in 0.6 mi WNW 3.5 mph - N/A Fog Fog
3:56 AM 52.0 °F 51.8 °F 99% 29.98 in 0.6 mi WNW 3.5 mph - N/A Fog Fog
4:19 AM 51.8 °F 51.8 °F 100% 29.98 in 1.2 mi WNW 3.5 mph - N/A   Clear
4:25 AM 51.8 °F 51.8 °F 100% 29.98 in 8.0 mi NW 3.5 mph - N/A   Clear
4:37 AM 51.8 °F 51.8 °F 100% 29.98 in 3.0 mi NW 2.3 mph - N/A   Clear
4:43 AM 51.8 °F 51.8 °F 100% 29.98 in 1.8 mi WNW 2.3 mph - N/A   Clear
4:49 AM 53.6 °F 51.8 °F 94% 29.98 in 0.9 mi WNW 2.3 mph - N/A Fog Patches of Fog
4:56 AM 53.6 °F 53.1 °F 98% 29.98 in 0.8 mi WNW 2.3 mph - N/A Fog Patches of Fog
5:07 AM 53.6 °F 51.8 °F 94% 29.98 in 1.9 mi WNW 2.3 mph - N/A   Partly Cloudy
5:13 AM 51.8 °F 51.8 °F 100% 29.98 in 1.4 mi WNW 2.3 mph - N/A   Partly Cloudy
5:24 AM 50.0 °F 50.0 °F 100% 29.98 in 1.0 mi WNW 3.5 mph - N/A Fog Fog
5:56 AM 51.6 °F 50.5 °F 96% 30.00 in 0.2 mi West 4.6 mph - N/A Fog Fog
6:07 AM 53.6 °F 51.8 °F 94% 30.00 in 12.0 mi West 2.3 mph - N/A   Partly Cloudy
6:56 AM 55.8 °F 55.8 °F 100% 30.02 in 12.0 mi Calm Calm - N/A   Clear
7:56 AM 66.4 °F 62.2 °F 86% 30.03 in 12.0 mi WNW 3.5 mph - N/A   Clear
8:56 AM 72.0 °F 59.4 °F 64% 30.04 in 12.0 mi NW 3.5 mph - N/A   Clear
9:56 AM 73.8 °F 56.5 °F 55% 30.03 in 12.0 mi Variable 2.3 mph - N/A   Clear
10:56 AM 77.4 °F 57.0 °F 49% 30.03 in 12.0 mi Variable 1.2 mph - N/A   Clear
11:56 AM 78.6 °F 59.2 °F 51% 30.03 in 12.0 mi South 11.5 mph - N/A   Clear
12:56 PM 78.1 °F 59.0 °F 52% 30.01 in 12.0 mi SSE 10.4 mph - N/A   Clear
1:56 PM 78.3 °F 60.8 °F 55% 29.99 in 12.0 mi South 10.4 mph 17.3 mph N/A   Clear
2:56 PM 78.3 °F 59.7 °F 53% 29.98 in 12.0 mi South 10.4 mph 17.3 mph N/A   Clear
3:56 PM 78.3 °F 60.3 °F 54% 29.97 in 12.0 mi South 11.5 mph - N/A   Clear
4:56 PM 77.2 °F 58.6 °F 53% 29.95 in 12.0 mi South 12.7 mph - N/A   Clear
5:56 PM 75.9 °F 60.8 °F 59% 29.96 in 12.0 mi SSE 9.2 mph - N/A   Clear
6:56 PM 73.6 °F 58.6 °F 59% 29.95 in 12.0 mi South 8.1 mph - N/A   Scattered Clouds
7:56 PM 71.1 °F 59.2 °F 66% 29.95 in 12.0 mi South 5.8 mph - N/A   Scattered Clouds
8:56 PM 68.4 °F 61.0 °F 77% 29.95 in 12.0 mi South 6.9 mph - N/A   Mostly Cloudy
9:56 PM 69.3 °F 60.8 °F 74% 29.97 in 12.0 mi South 4.6 mph - N/A   Clear
10:56 PM 66.9 °F 60.4 °F 80% 29.97 in 12.0 mi South 5.8 mph - N/A   Clear
11:56 PM 64.8 °F 60.3 °F 85% 29.97 in 12.0 mi SSW 4.6 mph - N/A   Clear